Hourly Data Report for July 31, 2021

FLIN FLON
MANITOBA
Current Station Operator: ECCC - MSC

54°41'00.000" N
101°41'00.000" W
303.90 m
5050919
71954
WFO

Download Data

Hourly Data (July 2021)
Hourly Data Report for July 31, 2021
TIME
LST
Temp Definition
°C
Dew Point Definition
°C
Rel Hum Definition
%
Precip. Amount Definition
mm

Wind Dir Definition
10's deg

Wind Spd Definition
km/h
Visibility Definition
km
Stn Press Definition
kPa
Hmdx Definition


Wind Chill Definition


Weather Definition


00:00 16.5 9.7 64 0.0 2 4   98.56     LegendNANA
01:00 15.6 9.6 67 0.0 2 3   98.59     LegendNANA
02:00 15.0 10.2 73 0.0 1 4   98.61     LegendNANA
03:00 15.1 9.7 71 0.0 2 7   98.65     LegendNANA
04:00 13.0 8.7 75 0.0 36 12   98.70     LegendNANA
05:00 13.3 9.5 78 0.0 1 2   98.76     LegendNANA
06:00 14.5 9.9 73 0.0 4 3   98.80     LegendNANA
07:00 16.5 10.6 68 0.0 1 8   98.86     LegendNANA
08:00 18.8 10.1 57 0.0 3 8   98.89     LegendNANA
09:00 20.9 9.4 48 0.0 3 9   98.93     LegendNANA
10:00 21.9 9.0 44 0.0 3 9   98.94     LegendNANA
11:00 23.1 8.2 38 0.0 5 10   98.95     LegendNANA
12:00 23.5 7.6 36 0.0 6 9   98.95     LegendNANA
13:00 23.8 6.3 32 0.0 7 4   98.93     LegendNANA
14:00 25.1 6.2 30 0.0 29 8   98.90 25   LegendNANA
15:00 25.6 5.2 27 0.0 31 14   98.89 25   LegendNANA
16:00 25.8 5.4 27 0.0 31 12   98.87 25   LegendNANA
17:00 25.7 6.9 30 0.0 32 11   98.83 26   LegendNANA
18:00 25.7 6.8 30 0.0 32 8   98.80 26   LegendNANA
19:00 25.1 6.5 30 0.0 34 8   98.77 25   LegendNANA
20:00 24.0 7.1 34 0.0 33 5   98.77     LegendNANA
21:00 19.3 8.9 51 0.0 32 3   98.78     LegendNANA
22:00 18.0 9.6 58 0.0 0 1   98.78     LegendNANA
23:00 15.9 9.2 64 0.0 0 1   98.77     LegendNANA

Notes on Data Quality.

Legend

  • E = Estimated
  • M = Missing
  • NA = Not Available*
  • [empty] = Indicates an unobserved value
Date modified: